Wise, VA

7:47 AM EST on December 07, 2016 (GMT -0500)
Lonesome Pine

Weather History for KLNP - January, 2013

Change the Weather History Date:

Wednesday, January 30, 2013

  Actual Average Record
Temperature  
Mean Temperature 50 °F -  
Max Temperature 62 °F 40 °F 66 °F (2002)
Min Temperature 37 °F 24 °F 1 °F (2014)
Degree Days  
Heating Degree Days 16    
Moisture  
Dew Point 51 °F    
Average Humidity 90    
Maximum Humidity 100    
Minimum Humidity 72    
Precipitation  
Precipitation 1.39 in - - ()
Sea Level Pressure  
Sea Level Pressure 29.64 in    
Wind  
Wind Speed 14 mph (South)    
Max Wind Speed 24 mph    
Max Gust Speed 36 mph    
Visibility 7 miles    
Events Rain    
Averages and records for this station are not official NWS values.
T = Trace of Precipitation, MM = Missing Value Source: NWS Daily Summary

Daily Weather History Graph

Daily Weather History Graph

Search for Another Location

Airport or City:

Trip Planner

Search our weather history database for the weather conditions in past years. The results will help you decide how hot, cold, wet, or windy it might be!

Date:

Astronomy

Jan. 30, 2013 Rise Set
Actual Time 7:34 AM EST 5:53 PM EST
Civil Twilight 7:06 AM EST 6:20 PM EST
Nautical Twilight 6:35 AM EST 6:51 PM EST
Astronomical Twilight 6:04 AM EST 7:22 PM EST
Moon 9:43 PM EST (1/30) 9:07 AM EST (1/30)
Length of Visible Light 11h 14m
Length of Day
10h 19m
Waning Gibbous, 88% of the Moon is Illuminated
Jan 30
Waning Gibbous
Feb 3
Last Quarter
Feb 10
New
Feb 17
First Quarter
Feb 25
Full

Hourly Weather History & Observations

Time (EST) Temp. Windchill Dew Point Humidity Pressure Visibility Wind Dir Wind Speed Gust Speed Precip Events Conditions
12:15 AM 60.8 °F - 51.8 °F 72% 29.91 in 10.0 mi South 13.8 mph 23.0 mph N/A   Scattered Clouds
12:35 AM 59.0 °F - 51.8 °F 77% 29.90 in 10.0 mi SSE 15.0 mph 21.9 mph N/A   Mostly Cloudy
12:55 AM 60.8 °F - 53.6 °F 77% 29.89 in 10.0 mi SSE 12.7 mph 19.6 mph N/A   Mostly Cloudy
1:15 AM 59.0 °F - 53.6 °F 82% 29.88 in 10.0 mi SSE 12.7 mph 23.0 mph N/A   Scattered Clouds
1:35 AM 60.8 °F - 53.6 °F 77% 29.87 in 10.0 mi SSE 16.1 mph 20.7 mph N/A   Mostly Cloudy
1:55 AM 59.0 °F - 55.4 °F 88% 29.86 in 10.0 mi SSE 15.0 mph 24.2 mph N/A   Overcast
2:15 AM 59.0 °F - 55.4 °F 88% 29.85 in 10.0 mi SSE 13.8 mph 23.0 mph N/A   Overcast
2:35 AM 59.0 °F - 55.4 °F 88% 29.84 in 10.0 mi SSE 11.5 mph 18.4 mph N/A   Overcast
2:55 AM 59.0 °F - 55.4 °F 88% 29.83 in 10.0 mi SSE 10.4 mph - N/A   Overcast
3:15 AM 59.0 °F - 55.4 °F 88% 29.81 in 10.0 mi South 12.7 mph 18.4 mph N/A   Mostly Cloudy
3:35 AM 60.8 °F - 55.4 °F 82% 29.80 in 10.0 mi South 11.5 mph 20.7 mph N/A   Scattered Clouds
3:55 AM 60.8 °F - 55.4 °F 82% 29.80 in 10.0 mi South 16.1 mph 25.3 mph N/A   Scattered Clouds
4:15 AM 60.8 °F - 53.6 °F 77% 29.78 in 10.0 mi South 19.6 mph 26.5 mph N/A   Mostly Cloudy
4:35 AM 60.8 °F - 53.6 °F 77% 29.77 in 10.0 mi South 20.7 mph 27.6 mph N/A   Overcast
4:55 AM 62.6 °F - 53.6 °F 72% 29.75 in 10.0 mi South 12.7 mph 23.0 mph N/A   Overcast
5:15 AM 62.6 °F - 53.6 °F 72% 29.74 in 10.0 mi South 19.6 mph 26.5 mph N/A   Overcast
5:35 AM 60.8 °F - 53.6 °F 77% 29.73 in 10.0 mi South 11.5 mph 24.2 mph N/A   Overcast
5:55 AM 60.8 °F - 53.6 °F 77% 29.71 in 10.0 mi South 19.6 mph 29.9 mph N/A   Mostly Cloudy
6:15 AM 60.8 °F - 53.6 °F 77% 29.70 in 7.0 mi South 19.6 mph 31.1 mph N/A Rain Light Rain
6:35 AM 60.8 °F - 53.6 °F 77% 29.69 in 10.0 mi South 23.0 mph 32.2 mph N/A   Scattered Clouds
6:55 AM 60.8 °F - 53.6 °F 77% 29.67 in 10.0 mi South 17.3 mph 31.1 mph N/A   Scattered Clouds
7:15 AM 62.6 °F - 53.6 °F 72% 29.65 in 10.0 mi South 19.6 mph 35.7 mph N/A   Scattered Clouds
7:35 AM 62.6 °F - 53.6 °F 72% 29.66 in 10.0 mi South 21.9 mph 31.1 mph N/A   Mostly Cloudy
7:55 AM 62.6 °F - 53.6 °F 72% 29.67 in 10.0 mi South 20.7 mph 35.7 mph N/A   Overcast
8:15 AM 62.6 °F - 53.6 °F 72% 29.66 in 10.0 mi South 18.4 mph 33.4 mph N/A   Overcast
8:35 AM 62.6 °F - 55.4 °F 77% 29.67 in 10.0 mi South 23.0 mph 32.2 mph N/A   Unknown
8:55 AM 62.6 °F - 55.4 °F 77% 29.68 in 7.0 mi South 23.0 mph 35.7 mph N/A   Overcast
9:15 AM 60.8 °F - 55.4 °F 82% 29.68 in 5.0 mi South 18.4 mph 29.9 mph N/A Rain Light Rain
9:35 AM 60.8 °F - 55.4 °F 82% 29.69 in 10.0 mi South 16.1 mph 25.3 mph N/A   Overcast
9:55 AM 62.6 °F - 55.4 °F 77% 29.71 in 10.0 mi South 11.5 mph 20.7 mph N/A   Overcast
10:15 AM 55.4 °F - 55.4 °F 100% 29.75 in 1.0 mi West 8.1 mph - 0.29 in Rain Heavy Rain
10:35 AM 55.4 °F - 55.4 °F 100% 29.74 in 1.8 mi WSW 6.9 mph - 0.47 in Rain Rain
10:55 AM 53.6 °F - 53.6 °F 100% 29.72 in 3.0 mi West 8.1 mph 17.3 mph 0.59 in Rain Heavy Rain
11:15 AM 53.6 °F - 53.6 °F 100% 29.70 in 4.0 mi WSW 5.8 mph - 0.02 in Rain Rain
11:35 AM 53.6 °F - 53.6 °F 100% 29.69 in 3.0 mi West 3.5 mph - 0.05 in Rain Rain
11:55 AM 53.6 °F - 53.6 °F 100% 29.69 in 5.0 mi South 3.5 mph - 0.07 in Rain Rain
12:15 PM 53.6 °F - 53.6 °F 100% 29.68 in 2.5 mi South 4.6 mph - 0.04 in Rain Light Rain
12:35 PM 53.6 °F - 53.6 °F 100% 29.65 in 5.0 mi South 3.5 mph - 0.04 in Rain Light Rain
12:55 PM 53.6 °F - 53.6 °F 100% 29.65 in 4.0 mi South 5.8 mph - 0.06 in Rain Rain
1:15 PM 53.6 °F - 53.6 °F 100% 29.63 in 3.0 mi SSW 5.8 mph - 0.03 in Rain Heavy Rain
1:35 PM 53.6 °F - 53.6 °F 100% 29.61 in 3.0 mi SSW 3.5 mph - 0.07 in Rain Rain
1:55 PM 53.6 °F - 53.6 °F 100% 29.60 in 2.5 mi Calm Calm - 0.12 in Rain Rain
2:15 PM 53.6 °F - 53.6 °F 100% 29.61 in 4.0 mi South 5.8 mph - 0.03 in Rain Rain
2:35 PM 53.6 °F - 53.6 °F 100% 29.61 in 0.8 mi South 8.1 mph - 0.11 in Rain Rain
2:55 PM 53.6 °F - 53.6 °F 100% 29.57 in 3.0 mi SSE 5.8 mph - 0.18 in Rain Heavy Rain
3:15 PM 53.6 °F - 53.6 °F 100% 29.57 in 3.0 mi SSE 8.1 mph - 0.05 in Rain Heavy Rain
3:35 PM 53.6 °F - 53.6 °F 100% 29.53 in 5.0 mi SSE 12.7 mph 16.1 mph 0.09 in Rain Rain
3:55 PM 53.6 °F - 53.6 °F 100% 29.52 in 5.0 mi South 12.7 mph 19.6 mph 0.11 in Rain Rain
4:15 PM 53.6 °F - 53.6 °F 100% 29.52 in 5.0 mi South 10.4 mph 18.4 mph 0.01 in Rain Light Rain
4:35 PM 53.6 °F - 53.6 °F 100% 29.51 in 5.0 mi South 11.5 mph - 0.03 in Rain Rain
4:55 PM 53.6 °F - 53.6 °F 100% 29.49 in 4.0 mi South 10.4 mph 21.9 mph 0.05 in Rain Rain
5:15 PM 53.6 °F - 53.6 °F 100% 29.48 in 5.0 mi South 13.8 mph 19.6 mph 0.02 in Rain Rain
5:35 PM 53.6 °F - 53.6 °F 100% 29.49 in 5.0 mi SSW 13.8 mph 20.7 mph 0.04 in Rain Rain
5:55 PM 53.6 °F - 53.6 °F 100% 29.48 in 7.0 mi SW 11.5 mph 19.6 mph 0.05 in Rain Light Rain
6:15 PM 53.6 °F - 53.6 °F 100% 29.50 in 4.0 mi SW 19.6 mph 27.6 mph 0.01 in Rain Light Rain
6:35 PM 50.0 °F - 48.2 °F 94% 29.51 in 7.0 mi SW 17.3 mph 33.4 mph 0.02 in Rain Light Rain
6:55 PM 48.2 °F - 48.2 °F 100% 29.50 in 5.0 mi SW 16.1 mph 26.5 mph 0.04 in Rain Light Rain
7:15 PM 46.4 °F 38.7 °F 46.4 °F 100% 29.53 in 7.0 mi SW 20.7 mph 28.8 mph 0.01 in Rain Light Rain
7:35 PM 44.6 °F 35.7 °F 44.6 °F 100% 29.52 in 7.0 mi SW 24.2 mph 27.6 mph 0.03 in Rain Rain
7:55 PM 44.6 °F 36.6 °F 42.8 °F 93% 29.52 in 5.0 mi SW 19.6 mph 23.0 mph 0.05 in Rain Light Rain
8:15 PM 44.6 °F 38.4 °F 42.8 °F 93% 29.52 in 5.0 mi SW 12.7 mph 21.9 mph N/A Rain Light Rain
8:35 PM 42.8 °F 36.2 °F 42.8 °F 100% 29.50 in 10.0 mi SSW 12.7 mph 23.0 mph N/A Rain Light Rain
8:55 PM 42.8 °F 36.2 °F 42.8 °F 100% 29.48 in 10.0 mi SSW 12.7 mph 21.9 mph 0.01 in Rain Light Rain
9:15 PM 42.8 °F 33.5 °F 42.8 °F 100% 29.50 in 10.0 mi SSW 23.0 mph 27.6 mph N/A Rain Light Rain
9:35 PM 42.8 °F 35.4 °F 42.8 °F 100% 29.47 in 10.0 mi SSW 15.0 mph 21.9 mph N/A   Light Drizzle
9:55 PM 42.8 °F 34.0 °F 42.8 °F 100% 29.49 in 7.0 mi SSW 20.7 mph 26.5 mph 0.01 in Rain Light Rain
10:15 PM 42.8 °F 34.8 °F 42.8 °F 100% 29.47 in 5.0 mi SSW 17.3 mph 23.0 mph N/A Rain Light Rain
10:35 PM 42.8 °F 34.3 °F 41.0 °F 93% 29.47 in 7.0 mi SW 19.6 mph 26.5 mph N/A   Light Drizzle
10:55 PM 42.8 °F 35.8 °F 41.0 °F 93% 29.46 in 10.0 mi SW 13.8 mph 26.5 mph N/A   Overcast
11:15 PM 41.0 °F 31.9 °F 41.0 °F 100% 29.49 in 4.0 mi WNW 19.6 mph 24.2 mph 0.01 in Rain Rain
11:35 PM 37.4 °F 27.2 °F 37.4 °F 100% 29.50 in 10.0 mi West 19.6 mph 29.9 mph 0.04 in   Overcast
11:55 PM 37.4 °F 28.5 °F 35.6 °F 93% 29.52 in 10.0 mi West 15.0 mph 25.3 mph 0.05 in   Overcast